Tracking 25734 objects as of 27-May-2022
HD Live streaming from Space Station
objects crossing your sky now

DMSP 5D-2 F11 DEB

Track DMSP 5D-2 F11 DEB now!
10-day predictions


NORAD ID: 28333
Int'l Code: 1991-082AW
Perigee: 758.1 km
Apogee: 776.0 km
Inclination: 98.6 °
Period: 100.0 minutes
Semi major axis: 7138 km
RCS: 0.0092 m2 (small)
Launch date: November 28, 1991
Source: United States (US)
Launch site: AIR FORCE WESTERN TEST RANGE (AFWTR)

Note: This is SATELLITE DEBRIS
aabbcc
Your satellite tracking list
Your tracking list is empty




NASA's NSSDC Master Catalog

Two Line Element Set (TLE):
1 28333U 91082AW  22145.00122895  .00005604  00000-0  18062-2 0  9994
2 28333  98.5994 203.2901 0012522 137.7930 341.9424 14.39574297940331
Source of the keplerian elements: AFSPC